EXPRESS-AM5

Last updated on Tue Oct 15 2024 00:02:39 GMT+0000 (Coordinated Universal Time)

1 39487U 13077A 24288.51786094 -.00000282 00000+0 00000+0 0 9994 2 39487 0.0174 235.9841 0001097 45.5010 68.5460 1.00272787 40231
UTC large
Height (km)
Speed (km/s)
/
Latitude / Longitude
Inclination (degrees)
Orbital Period (minutes)
Azimuth
Elevation
Range (km)
Doppler Factor

Next 0 passes for location: London (51.5072 / 0.1276)

Sorry there are no passes over London.